User: anonymous   Login
Location: Unspecified
(0.0000°N, 0.0000°E)
Time: 18:52:47
(UTC+00:00)
Language:

CICERO 7 - Orbit

View from above orbital plane
View from above orbital plane
View from above satellite
View from above satellite

Ground track
Ground track

The orbit data is extracted from the following two-line orbital elements,

1 43143U 18004AJ  18350.91839768 +.00001184 +00000-0 +52299-4 0  9991
2 43143 097.5126 054.1828 0007766 176.5375 183.5917 15.23710162051542
Epoch (UTC): 16 December 2018 22:02:29
Eccentricity: 0.0007766
inclination: 97.5126°
perigee height: 489 km
apogee height: 500 km
right ascension of ascending node: 54.1828°
argument of perigee: 176.5375°
revolutions per day: 15.23710162
mean anomaly at epoch: 183.5917°
orbit number at epoch: 5154

The dashed part of the orbit path shows where the satellite is in the earth's shadow,  

DLR